Total_Precipitation_Accumulation
0.00 0.00 0.00 0.00 0.00 0.00 0.00 0.00 0.00 0.00 0.00 0.00 0.00 0.00 0.00 0.00 0.00 0.00 0.00 0.00 0.00 0.00 0.00 0.00 0.00 0.00 0.00 0.00 0.00 0.00 0.00 0.00 0.00 0.00 0.00 -0.00 -0.00 -0.00 -0.00 -0.00 -0.00 -0.00 -0.00 -0.00 -0.00 -0.00 -0.00 -0.00 -0.00 -0.00 0.00 0.00 0.00 0.00 0.00 0.00 0.00 0.00 -0.00 -0.00 -0.00 -0.01 -0.01 -0.00 -0.00 -0.01 0.00 -0.04 0.01 0.01 0.01 -0.00 -0.08 -0.08 -0.07 -0.08 -0.08 -0.08 -0.07 -0.06 -0.06 -0.04 -0.04 -0.02 -0.02 -0.03
0.00 0.00 0.00 0.00 0.00 0.00 0.00 0.00 0.00 0.00 0.00 0.00 0.00 0.00 0.00 0.00 0.00 0.00 0.00 0.00 0.00 0.00 0.00 0.00 0.00 0.00 -0.00 0.00 0.00 0.00 0.00 -0.00 -0.00 -0.00 -0.00 0.00 0.00 0.00 -0.00 0.00 0.00 0.00 -0.00 0.00 0.00 0.00 -0.00 0.00 0.00 0.00 0.00 -0.00 -0.00 -0.00 -0.01 -0.00 -0.00 -0.01 -0.00 -0.01 -0.01 -0.01 -0.03 -0.02 -0.02 -0.05 -0.06 -0.08 -0.10 -0.10 -0.07 -0.08 -0.05 -0.05 -0.03 -0.05 -0.06 -0.06 -0.05 -0.06 -0.06 -0.05 -0.06 -0.05 -0.05 -0.05
-0.00 0.00 0.00 0.00 0.00 0.00 0.00 0.00 0.00 0.00 0.00 0.00 0.00 0.00 0.00 0.00 0.00 0.00 0.00 0.00 0.00 0.00 -0.00 -0.00 -0.00 -0.00 0.00 0.00 0.00 0.00 0.00 0.00 0.00 0.00 0.00 0.00 0.00 0.00 0.00 0.00 0.00 0.00 0.00 0.00 0.00 0.00 0.00 0.00 0.00 0.00 -0.01 -0.01 -0.01 -0.01 0.00 0.00 0.00 0.00 -0.01 -0.01 -0.01 -0.01 -0.01 -0.01 -0.01 -0.03 -0.04 -0.01 -0.03 -0.03 -0.09 -0.06 -0.07 -0.07 -0.04 -0.03 0.00 0.00 0.01 0.00 0.00 -0.00 0.00 0.01 0.01 -0.02
0.00 0.00 0.00 0.00 0.00 0.00 0.00 0.00 0.00 0.00 0.00 0.00 0.00 0.00 0.00 0.00 0.00 0.00 -0.00 -0.00 -0.00 -0.00 -0.00 0.00 0.00 0.00 -0.01 -0.00 -0.00 -0.00 0.00 0.00 0.00 0.00 0.00 0.00 0.00 0.00 0.00 0.00 0.00 0.00 0.00 0.00 0.00 0.00 0.00 0.00 0.00 0.00 0.00 -0.00 -0.00 -0.00 -0.00 -0.01 -0.01 -0.01 -0.02 -0.02 -0.02 -0.04 -0.05 -0.03 -0.03 -0.06 -0.04 -0.04 -0.08 -0.08 -0.04 -0.03 -0.04 -0.04 -0.03 -0.02 -0.00 -0.00 0.00 0.01 0.01 -0.00 0.00 -0.01 -0.01 -0.01
-0.00 -0.00 -0.00 -0.00 -0.00 -0.00 0.00 0.00 0.00 0.00 0.00 0.00 0.00 0.00 0.00 0.00 -0.00 -0.00 -0.01 -0.01 -0.01 -0.00 -0.00 -0.00 -0.00 -0.01 -0.00 0.00 0.00 0.00 0.00 0.00 0.00 0.00 0.00 0.00 0.00 0.00 0.00 0.00 0.00 0.00 0.00 0.00 0.00 0.00 0.00 0.00 0.00 0.00 -0.00 -0.00 0.00 0.00 -0.01 -0.02 -0.02 -0.02 -0.02 -0.04 -0.04 -0.04 -0.07 -0.06 -0.06 -0.12 -0.12 -0.11 -0.05 -0.05 -0.05 -0.03 -0.03 -0.03 -0.02 -0.02 -0.02 -0.02 -0.03 -0.02 -0.02 -0.03 -0.02 -0.01 -0.01 -0.03
-0.01 -0.01 -0.00 -0.00 -0.00 -0.00 0.00 -0.00 -0.00 -0.00 -0.00 -0.00 -0.00 -0.00 -0.01 -0.01 -0.02 -0.02 -0.01 -0.00 -0.00 -0.00 -0.02 -0.01 -0.01 -0.00 0.00 0.00 0.00 0.00 0.00 0.00 0.00 0.00 0.00 0.00 0.00 0.00 0.00 0.00 0.00 0.00 0.00 0.00 0.00 0.00 0.00 0.00 0.00 0.00 -0.00 -0.00 -0.00 -0.00 -0.01 -0.02 -0.02 -0.02 -0.03 -0.03 -0.03 -0.04 -0.07 -0.06 -0.06 -0.04 -0.04 -0.07 -0.03 -0.03 -0.03 -0.03 -0.02 -0.02 -0.02 -0.03 -0.02 -0.02 -0.03 -0.04 -0.04 -0.05 -0.04 -0.04 -0.04 -0.04
-0.02 -0.01 -0.00 -0.00 -0.00 -0.00 -0.00 -0.01 -0.01 -0.01 -0.00 -0.00 -0.04 -0.04 -0.03 -0.03 -0.01 -0.01 -0.02 -0.02 -0.02 -0.03 -0.00 0.00 0.00 0.00 0.00 0.00 0.00 0.00 0.00 0.00 0.00 0.00 0.00 0.00 0.00 0.00 0.00 0.00 0.00 0.00 0.00 0.00 0.00 0.00 0.00 -0.00 -0.00 -0.00 -0.00 -0.01 -0.00 -0.00 -0.01 -0.02 -0.02 -0.02 -0.10 -0.08 -0.08 -0.07 -0.04 -0.04 -0.04 -0.04 -0.04 -0.03 -0.03 -0.03 -0.03 -0.02 -0.03 -0.03 -0.02 -0.04 -0.04 -0.04 -0.05 -0.05 -0.05 -0.05 -0.06 -0.04 -0.04 -0.03
-0.02 -0.00 -0.02 -0.03 -0.03 -0.03 -0.03 -0.05 -0.05 -0.05 -0.11 -0.15 -0.03 -0.03 -0.02 -0.02 -0.02 -0.02 -0.01 -0.00 -0.00 0.00 0.00 0.00 0.00 0.00 0.00 0.00 0.00 0.00 0.00 0.00 0.00 0.00 0.00 0.00 0.00 0.00 0.00 -0.00 -0.00 -0.00 0.00 -0.00 -0.00 -0.00 -0.00 -0.00 -0.00 -0.00 -0.00 -0.05 -0.07 -0.07 -0.02 -0.04 -0.04 -0.05 -0.03 -0.02 -0.02 -0.02 -0.03 -0.04 -0.04 -0.01 -0.02 -0.04 -0.02 -0.02 -0.03 -0.04 -0.04 -0.04 -0.05 -0.06 -0.05 -0.05 -0.06 -0.05 -0.05 -0.04 -0.04 -0.06 -0.06 -0.04
-0.02 -0.01 -0.05 -0.05 -0.05 -0.06 -0.05 -0.17 -0.13 -0.13 -0.08 -0.06 -0.07 -0.07 -0.08 -0.05 -0.00 -0.00 0.00 0.00 0.00 0.00 0.00 0.00 0.00 0.00 0.00 0.00 0.00 0.00 0.00 0.00 0.00 0.00 0.00 -0.00 -0.00 -0.00 -0.00 -0.00 -0.00 -0.00 -0.00 -0.00 -0.00 -0.00 -0.00 -0.03 -0.03 -0.03 -0.03 -0.01 -0.02 -0.02 0.00 -0.01 -0.01 -0.02 -0.02 -0.02 -0.02 -0.03 -0.01 -0.01 -0.01 -0.01 -0.01 -0.01 -0.01 -0.01 -0.01 -0.06 -0.05 -0.05 -0.05 -0.04 -0.06 -0.06 -0.04 -0.06 -0.06 -0.05 -0.07 -0.04 -0.04 -0.05
-0.01 -0.03 -0.10 -0.11 -0.11 -0.17 -0.20 -0.12 -0.04 -0.04 -0.01 -0.02 -0.04 -0.04 -0.04 -0.01 0.00 0.00 0.00 0.00 0.00 0.00 0.00 0.00 0.00 0.00 0.00 0.00 0.00 0.00 0.00 0.00 0.00 0.00 -0.00 -0.00 -0.00 -0.00 -0.00 -0.00 -0.00 -0.00 -0.00 -0.01 -0.01 -0.01 -0.02 -0.01 -0.01 -0.01 -0.01 0.00 0.00 0.00 0.00 -0.01 -0.01 -0.01 -0.00 0.00 0.00 -0.01 -0.00 -0.00 -0.00 0.00 -0.01 -0.01 -0.02 -0.02 -0.04 -0.06 -0.03 -0.03 -0.03 -0.05 -0.05 -0.05 -0.06 -0.05 -0.05 -0.08 -0.12 -0.10 -0.10 -0.14
-0.07 -0.08 -0.25 -0.28 -0.28 -0.23 -0.22 -0.02 -0.01 -0.01 -0.02 -0.04 -0.01 -0.01 -0.01 -0.00 0.00 0.00 0.00 0.00 0.00 0.00 0.00 0.00 0.00 0.00 0.00 0.00 0.00 0.00 0.00 -0.00 -0.00 -0.00 -0.00 -0.00 -0.00 -0.00 -0.00 -0.00 -0.00 -0.00 -0.01 -0.02 -0.02 -0.01 -0.02 0.00 0.00 0.00 0.00 0.00 0.00 0.00 0.00 0.00 0.00 0.00 0.00 0.00 0.00 0.00 0.00 0.00 0.00 0.00 0.00 -0.01 -0.07 -0.07 -0.07 -0.05 -0.09 -0.09 -0.08 -0.11 -0.09 -0.09 -0.13 -0.13 -0.13 -0.09 -0.15 -0.14 -0.14 -0.12
-0.16 -0.36 -0.31 -0.21 -0.21 -0.15 -0.09 -0.01 -0.02 -0.02 -0.03 -0.02 -0.00 -0.00 0.00 0.00 0.00 0.00 0.00 0.00 0.00 0.00 0.00 0.00 0.00 0.00 0.00 0.00 -0.00 -0.00 -0.00 -0.02 -0.01 -0.01 -0.00 -0.01 -0.01 -0.01 -0.01 -0.02 -0.02 -0.02 -0.02 -0.00 -0.00 0.00 0.00 0.00 0.00 0.00 0.00 0.00 0.00 0.00 0.00 0.00 0.00 0.00 0.00 0.00 0.00 0.00 0.00 0.00 0.00 0.00 -0.02 -0.04 -0.09 -0.09 -0.06 -0.08 -0.11 -0.11 -0.11 -0.16 -0.15 -0.15 -0.15 -0.16 -0.16 -0.14 -0.13 -0.10 -0.10 -0.11
-0.35 -0.23 -0.18 -0.11 -0.11 -0.05 -0.01 -0.02 -0.03 -0.03 -0.03 -0.00 -0.00 -0.00 0.00 0.00 0.00 0.00 0.00 0.00 0.00 0.00 0.00 0.00 0.00 0.00 -0.00 -0.00 -0.01 -0.01 -0.02 -0.03 -0.01 -0.01 -0.01 -0.04 -0.03 -0.03 -0.03 -0.01 -0.01 -0.00 -0.00 0.00 0.00 0.00 0.00 0.00 0.00 0.00 0.00 0.00 0.00 0.00 0.00 0.00 0.00 0.00 0.00 0.00 0.00 0.00 -0.02 -0.01 -0.01 -0.01 -0.07 -0.09 -0.09 -0.09 -0.09 -0.10 -0.11 -0.11 -0.14 -0.19 -0.19 -0.19 -0.17 -0.14 -0.14 -0.13 -0.11 -0.13 -0.13 -0.12
-0.33 -0.21 -0.07 -0.01 -0.01 0.01 -0.04 -0.03 -0.02 -0.02 -0.01 0.00 0.00 0.00 0.00 0.00 0.00 0.00 0.00 -0.00 -0.00 -0.00 -0.00 -0.01 -0.01 -0.01 -0.01 -0.01 -0.03 -0.03 -0.05 -0.05 -0.03 -0.03 -0.04 -0.02 -0.02 -0.02 -0.01 0.00 0.00 0.00 0.00 0.00 0.00 0.00 0.00 0.00 0.00 0.00 0.00 0.00 0.00 0.00 0.00 0.00 0.00 0.00 -0.00 -0.02 -0.02 -0.03 -0.08 -0.09 -0.09 -0.07 -0.10 -0.09 -0.12 -0.12 -0.10 -0.11 -0.22 -0.22 -0.22 -0.27 -0.23 -0.23 -0.20 -0.23 -0.23 -0.18 -0.23 -0.18 -0.18 -0.14
-0.28 -0.07 -0.03 -0.00 -0.00 -0.01 -0.01 -0.00 -0.00 -0.00 -0.00 0.00 0.00 0.00 0.00 0.00 0.00 0.00 -0.00 -0.01 -0.01 -0.00 -0.02 -0.02 -0.02 -0.01 -0.02 -0.03 -0.04 -0.04 -0.05 -0.02 -0.04 -0.04 -0.04 0.00 0.00 0.00 0.00 0.00 0.00 0.00 0.00 0.00 0.00 0.00 0.00 0.00 0.00 0.00 0.00 0.00 0.00 0.00 0.00 0.00 0.00 0.00 -0.02 -0.03 -0.03 -0.07 -0.08 -0.10 -0.10 -0.10 -0.11 -0.11 -0.16 -0.16 -0.21 -0.24 -0.22 -0.22 -0.30 -0.19 -0.23 -0.23 -0.24 -0.14 -0.14 -0.22 -0.11 -0.17 -0.17 -0.17
-0.17 -0.02 -0.05 -0.04 -0.04 -0.03 -0.00 -0.00 0.00 0.00 0.00 0.00 0.00 0.00 0.00 -0.00 -0.00 -0.00 -0.01 -0.02 -0.02 -0.01 -0.07 -0.12 -0.12 -0.08 -0.01 -0.01 -0.03 -0.03 -0.02 -0.02 -0.01 -0.01 -0.00 0.00 0.00 0.00 0.00 0.00 0.00 -0.00 0.00 0.00 0.00 -0.00 0.00 0.00 0.00 0.00 0.00 0.00 0.00 0.00 0.00 -0.01 -0.01 -0.01 -0.02 -0.02 -0.02 -0.02 -0.01 -0.08 -0.08 -0.10 -0.10 -0.12 -0.11 -0.11 -0.15 -0.20 -0.07 -0.07 -0.09 -0.02 -0.03 -0.03 -0.08 -0.02 -0.02 -0.05 -0.01 -0.06 -0.06 -0.11
-0.02 -0.01 -0.02 -0.02 -0.02 0.00 0.00 0.00 0.00 0.00 0.00 0.00 0.00 0.00 -0.00 -0.00 -0.03 -0.03 -0.05 -0.05 -0.05 -0.06 -0.16 -0.12 -0.12 -0.09 -0.06 -0.02 -0.01 -0.01 -0.02 -0.01 0.00 0.00 0.00 0.00 0.00 0.00 0.00 -0.00 -0.00 -0.00 0.00 -0.00 -0.00 -0.00 0.00 0.00 0.00 0.00 0.00 0.00 0.00 0.00 0.00 -0.02 -0.02 -0.02 -0.02 -0.01 -0.01 -0.01 -0.10 -0.11 -0.11 -0.11 -0.04 -0.07 -0.02 -0.02 -0.02 -0.04 -0.01 -0.01 -0.02 -0.02 -0.00 -0.00 -0.00 0.00 0.00 0.00 0.01 0.01 0.01 0.00
0.06 0.02 0.00 0.00 0.00 0.00 0.00 0.00 0.00 0.00 0.00 0.00 -0.00 -0.00 -0.00 -0.00 -0.07 -0.07 -0.10 -0.13 -0.13 -0.20 -0.10 -0.10 -0.10 -0.13 -0.12 -0.06 -0.01 -0.01 -0.00 -0.01 -0.01 -0.01 -0.00 -0.01 -0.00 -0.00 0.00 -0.00 -0.00 -0.00 -0.00 -0.00 -0.00 0.00 0.00 0.00 0.00 0.00 0.00 -0.00 -0.01 -0.01 -0.02 -0.01 -0.01 -0.01 -0.01 -0.07 -0.07 -0.08 -0.01 -0.01 -0.01 -0.02 -0.01 -0.02 -0.02 -0.02 -0.01 -0.01 -0.00 -0.00 -0.00 -0.00 -0.00 -0.00 0.00 0.01 0.01 0.01 0.02 0.02 0.02 0.02
0.04 0.00 0.00 0.00 0.00 0.00 -0.00 0.00 0.00 0.00 0.00 -0.01 -0.03 -0.03 -0.04 -0.04 -0.10 -0.10 -0.13 -0.13 -0.13 -0.18 -0.16 -0.12 -0.12 -0.09 -0.04 -0.01 0.00 0.00 0.00 -0.01 -0.02 -0.02 -0.01 -0.01 -0.00 -0.00 0.00 -0.00 -0.00 -0.00 -0.00 -0.00 -0.00 0.00 0.00 0.00 0.00 -0.00 -0.00 -0.03 -0.02 -0.02 -0.02 -0.04 -0.04 -0.04 -0.04 -0.01 -0.01 -0.01 -0.00 -0.00 -0.00 -0.00 -0.02 -0.01 -0.02 -0.02 -0.02 -0.02 -0.01 -0.01 -0.01 -0.01 -0.01 -0.01 -0.00 -0.01 -0.01 0.00 0.01 0.01 0.01 0.02
0.00 0.00 0.00 0.00 0.00 -0.00 0.00 0.00 0.00 0.00 -0.00 -0.09 -0.19 -0.19 -0.20 -0.12 -0.12 -0.12 -0.12 -0.14 -0.14 -0.16 -0.15 -0.14 -0.14 -0.08 0.02 0.00 0.00 0.00 0.00 -0.01 -0.03 -0.03 -0.03 -0.01 -0.00 -0.00 0.00 -0.00 -0.00 -0.00 -0.00 -0.01 -0.01 -0.00 -0.00 -0.03 -0.03 -0.03 -0.04 -0.04 -0.04 -0.04 -0.04 -0.01 -0.01 -0.01 -0.01 0.00 0.00 -0.00 0.00 0.00 0.00 -0.00 -0.01 -0.02 -0.02 -0.02 -0.01 -0.01 -0.02 -0.02 -0.02 -0.01 -0.02 -0.02 -0.02 -0.04 -0.04 -0.02 -0.01 -0.02 -0.02 -0.00
0.00 -0.00 0.00 -0.00 -0.00 -0.00 0.00 0.00 0.00 0.00 -0.01 -0.20 -0.32 -0.32 -0.20 -0.14 -0.14 -0.14 -0.16 -0.19 -0.19 -0.18 0.04 0.08 0.08 0.03 -0.02 -0.02 -0.01 -0.01 0.00 -0.00 -0.03 -0.03 -0.05 -0.04 -0.00 -0.00 0.00 -0.01 -0.01 -0.02 -0.01 -0.03 -0.03 -0.03 -0.03 -0.05 -0.05 -0.05 -0.04 -0.02 -0.02 -0.02 -0.02 0.00 0.00 0.00 0.00 -0.00 -0.00 -0.00 -0.02 -0.00 -0.00 -0.00 -0.01 -0.02 -0.02 -0.02 -0.03 -0.03 -0.06 -0.06 -0.05 -0.04 -0.10 -0.10 -0.07 -0.07 -0.07 -0.05 -0.04 -0.03 -0.03 -0.03
0.00 0.00 0.00 0.00 0.00 0.00 -0.03 -0.03 -0.05 -0.05 -0.10 -0.38 -0.42 -0.42 -0.28 -0.16 -0.16 -0.16 -0.08 0.01 0.01 0.02 0.07 0.02 0.02 -0.02 -0.01 -0.01 -0.00 -0.00 -0.00 -0.02 -0.06 -0.06 -0.05 -0.07 -0.01 -0.01 -0.00 -0.03 -0.03 -0.04 -0.05 -0.04 -0.04 -0.03 -0.05 -0.04 -0.04 -0.03 -0.03 0.00 0.00 0.00 0.00 -0.00 -0.00 -0.00 -0.00 -0.02 -0.02 -0.02 -0.02 -0.02 -0.02 -0.02 -0.03 -0.03 -0.03 -0.03 -0.07 -0.07 -0.13 -0.13 -0.13 -0.12 -0.11 -0.11 -0.10 -0.09 -0.09 -0.09 -0.08 -0.08 -0.08 -0.06
0.00 0.00 0.00 0.00 0.00 -0.01 -0.21 -0.20 -0.16 -0.16 -0.21 -0.27 -0.27 -0.27 -0.22 -0.21 0.14 0.14 0.15 0.15 0.15 0.01 -0.04 -0.04 -0.04 -0.02 -0.01 -0.01 -0.00 -0.00 -0.01 -0.02 -0.04 -0.04 -0.11 -0.07 -0.01 -0.01 -0.01 -0.03 -0.03 -0.05 -0.06 -0.02 -0.02 -0.02 -0.03 -0.00 -0.00 0.00 0.00 0.00 -0.00 -0.00 -0.00 -0.01 -0.01 -0.01 -0.02 -0.02 -0.02 -0.02 -0.02 -0.03 -0.03 -0.03 -0.04 -0.05 -0.06 -0.06 -0.10 -0.12 -0.06 -0.06 -0.08 -0.10 -0.06 -0.06 -0.08 -0.09 -0.09 -0.06 -0.07 -0.05 -0.05 -0.07
0.00 -0.00 -0.01 -0.02 -0.02 -0.06 -0.29 -0.29 -0.25 -0.25 -0.20 0.05 0.11 0.11 0.17 0.21 0.35 0.35 0.18 0.07 0.07 -0.05 -0.06 -0.04 -0.04 -0.02 -0.02 -0.01 -0.01 -0.01 -0.00 -0.00 -0.01 -0.01 -0.03 -0.06 -0.01 -0.01 -0.01 -0.02 -0.02 -0.03 -0.02 -0.02 -0.02 -0.01 -0.01 0.00 0.00 0.00 0.00 0.00 -0.00 -0.00 -0.01 -0.02 -0.02 -0.03 -0.03 -0.03 -0.03 -0.03 -0.03 -0.03 -0.03 -0.03 -0.03 -0.04 -0.05 -0.05 -0.02 -0.03 -0.04 -0.04 -0.02 -0.02 -0.01 -0.01 -0.02 -0.03 -0.03 -0.02 -0.03 -0.02 -0.02 -0.03
-0.02 -0.07 -0.14 -0.20 -0.20 -0.25 -0.11 -0.10 -0.07 -0.07 -0.04 0.60 0.83 0.83 0.85 0.57 -0.04 -0.04 -0.04 -0.04 -0.04 -0.04 -0.04 -0.05 -0.05 -0.05 -0.01 -0.01 -0.01 -0.01 -0.00 -0.00 -0.01 -0.01 -0.06 -0.19 -0.07 -0.07 -0.03 -0.00 -0.00 -0.01 -0.03 -0.00 -0.00 0.00 0.00 -0.00 -0.00 0.00 0.00 0.00 -0.00 -0.00 -0.01 -0.03 -0.03 -0.04 -0.03 -0.03 -0.03 -0.03 -0.03 -0.02 -0.02 -0.02 -0.02 -0.02 -0.02 -0.02 -0.01 -0.01 -0.01 -0.01 -0.01 -0.01 -0.01 -0.01 -0.01 -0.01 -0.01 -0.01 -0.01 -0.01 -0.01 -0.01
-0.11 -0.15 -0.14 -0.11 -0.11 -0.10 0.04 0.10 0.17 0.17 0.36 0.07 0.03 0.03 -0.01 -0.03 -0.04 -0.04 -0.04 -0.03 -0.03 -0.03 -0.06 -0.13 -0.13 -0.04 -0.01 -0.01 -0.00 -0.00 -0.00 -0.01 -0.04 -0.04 -0.14 -0.19 -0.04 -0.04 -0.00 -0.01 -0.01 -0.02 -0.02 -0.00 -0.00 0.00 0.00 0.00 0.00 0.00 0.00 0.00 -0.00 -0.00 -0.01 -0.03 -0.03 -0.03 -0.03 -0.02 -0.02 -0.02 -0.02 -0.01 -0.01 -0.01 -0.00 -0.00 -0.01 -0.01 -0.01 -0.01 -0.01 -0.01 -0.01 -0.01 -0.01 -0.01 -0.01 -0.01 -0.01 -0.01 -0.01 -0.01 -0.01 -0.01
-0.08 -0.05 -0.03 -0.01 -0.01 0.01 0.03 0.04 0.05 0.05 0.06 -0.01 -0.02 -0.02 -0.05 -0.05 -0.09 -0.09 -0.08 -0.05 -0.05 -0.03 -0.07 -0.11 -0.11 -0.05 -0.02 -0.01 -0.03 -0.03 -0.01 -0.01 -0.02 -0.02 -0.07 -0.09 -0.04 -0.04 -0.00 -0.00 -0.00 -0.00 -0.00 -0.00 -0.00 0.00 -0.00 -0.00 -0.00 0.00 0.00 -0.00 -0.01 -0.01 -0.02 -0.02 -0.02 -0.02 -0.02 -0.01 -0.01 -0.01 -0.01 -0.01 -0.01 -0.01 -0.01 -0.01 -0.01 -0.01 -0.01 -0.01 -0.01 -0.01 -0.02 -0.01 -0.02 -0.02 -0.02 -0.01 -0.01 -0.02 -0.01 -0.03 -0.03 -0.01
-0.01 0.00 0.00 0.01 0.01 0.02 0.02 0.02 0.01 0.01 -0.00 -0.01 -0.02 -0.02 -0.06 -0.09 -0.16 -0.16 -0.06 -0.01 -0.01 -0.06 -0.15 -0.10 -0.10 -0.06 -0.04 -0.03 -0.02 -0.02 -0.01 -0.00 -0.00 -0.00 0.00 -0.03 -0.11 -0.11 -0.04 -0.00 -0.00 -0.00 -0.01 -0.01 -0.01 -0.00 -0.00 0.00 0.00 0.00 0.00 -0.01 -0.01 -0.01 -0.01 -0.01 -0.01 -0.01 -0.01 -0.00 -0.00 -0.00 -0.01 -0.01 -0.01 -0.01 -0.01 -0.02 -0.02 -0.02 -0.03 -0.03 -0.02 -0.02 -0.04 -0.04 -0.09 -0.09 -0.07 -0.04 -0.04 -0.09 -0.06 -0.14 -0.14 -0.06
0.00 0.01 0.01 0.02 0.02 0.00 0.00 0.00 0.00 0.00 0.00 0.00 -0.01 -0.01 -0.03 -0.08 -0.16 -0.16 -0.04 -0.01 -0.01 -0.23 -0.13 -0.10 -0.10 -0.09 -0.03 -0.04 -0.02 -0.02 -0.02 -0.00 0.00 0.00 -0.00 -0.06 -0.07 -0.07 -0.01 -0.01 -0.01 -0.00 -0.02 -0.02 -0.02 -0.00 -0.00 0.00 0.00 0.00 -0.00 -0.00 -0.00 -0.00 -0.01 -0.01 -0.01 -0.00 -0.00 -0.00 -0.00 -0.00 -0.00 -0.01 -0.01 -0.01 -0.02 -0.04 -0.04 -0.04 -0.06 -0.06 -0.06 -0.06 -0.10 -0.11 -0.09 -0.09 -0.09 -0.10 -0.10 -0.11 -0.14 -0.14 -0.14 -0.13
0.02 0.01 0.00 0.00 0.00 0.00 0.00 0.00 0.00 0.00 0.00 -0.00 -0.02 -0.02 -0.04 -0.06 -0.12 -0.12 -0.08 -0.04 -0.04 -0.19 -0.23 -0.08 -0.08 -0.13 -0.05 -0.03 -0.02 -0.02 -0.01 0.00 0.00 0.00 -0.00 -0.09 -0.04 -0.04 -0.01 -0.01 -0.01 -0.02 -0.02 -0.03 -0.03 -0.01 -0.00 0.00 0.00 -0.00 -0.00 -0.01 -0.01 -0.01 -0.01 -0.00 -0.00 -0.00 -0.00 -0.00 -0.00 -0.01 -0.01 -0.03 -0.03 -0.03 -0.04 -0.05 -0.06 -0.06 -0.08 -0.09 -0.10 -0.10 -0.07 -0.07 -0.09 -0.09 -0.05 -0.07 -0.07 -0.07 -0.09 -0.11 -0.11 -0.06
0.01 0.00 0.00 0.00 0.00 0.00 0.00 0.00 0.00 0.00 -0.00 -0.01 -0.02 -0.02 -0.03 -0.02 -0.03 -0.03 -0.04 -0.11 -0.11 -0.21 -0.22 -0.09 -0.09 -0.05 -0.07 -0.09 -0.06 -0.06 -0.03 -0.00 0.00 0.00 -0.00 -0.11 -0.08 -0.08 -0.01 -0.03 -0.03 -0.02 -0.01 -0.09 -0.09 -0.13 0.00 -0.00 -0.00 -0.00 -0.00 -0.01 -0.01 -0.01 -0.00 -0.00 -0.00 -0.00 -0.00 -0.02 -0.02 -0.02 -0.03 -0.03 -0.03 -0.03 -0.04 -0.05 -0.06 -0.06 -0.03 -0.04 -0.05 -0.05 -0.02 -0.03 -0.03 -0.03 -0.03 -0.04 -0.04 -0.08 -0.08 -0.06 -0.06 -0.05
0.00 0.00 0.00 0.00 0.00 0.00 -0.00 -0.00 -0.00 -0.00 -0.00 -0.01 -0.01 -0.01 -0.01 -0.01 -0.03 -0.03 -0.05 -0.07 -0.07 -0.24 -0.17 -0.09 -0.09 -0.05 -0.03 -0.20 -0.16 -0.16 -0.02 -0.00 0.00 0.00 -0.03 -0.25 -0.05 -0.05 -0.03 -0.07 -0.07 -0.04 -0.01 -0.02 -0.02 -0.11 -0.08 -0.01 -0.01 -0.01 -0.00 -0.01 -0.00 -0.00 -0.00 -0.00 -0.00 -0.01 -0.02 -0.01 -0.01 -0.01 -0.00 -0.00 -0.00 -0.01 -0.01 -0.01 -0.01 -0.01 -0.01 -0.03 -0.03 -0.03 -0.06 -0.06 -0.07 -0.07 -0.09 -0.11 -0.11 -0.20 -0.19 -0.15 -0.15 -0.10
0.00 0.00 0.00 0.00 0.00 -0.00 -0.01 -0.01 -0.01 -0.01 -0.01 -0.01 -0.01 -0.01 -0.01 -0.01 -0.03 -0.03 -0.03 -0.05 -0.05 -0.11 -0.24 -0.18 -0.18 -0.18 -0.10 -0.05 -0.05 -0.05 -0.03 -0.01 0.00 0.00 -0.00 -0.16 -0.29 -0.29 -0.06 -0.09 -0.09 -0.07 -0.01 -0.01 -0.01 -0.03 -0.07 -0.00 -0.00 0.00 -0.00 -0.01 -0.00 -0.00 0.00 -0.02 -0.02 -0.02 -0.01 -0.00 -0.00 -0.00 -0.00 -0.00 -0.00 -0.00 -0.01 -0.02 -0.02 -0.02 -0.02 -0.04 -0.05 -0.05 -0.08 -0.08 -0.08 -0.08 -0.10 -0.11 -0.11 -0.14 -0.21 -0.23 -0.23 -0.17
-0.00 0.00 -0.00 -0.00 -0.00 -0.01 -0.01 -0.01 -0.01 -0.01 -0.01 -0.01 -0.01 -0.01 -0.01 -0.01 -0.01 -0.01 -0.02 -0.04 -0.04 -0.10 -0.25 -0.25 -0.25 -0.22 -0.22 -0.15 -0.06 -0.06 -0.04 -0.00 0.00 0.00 -0.02 -0.31 -0.18 -0.18 -0.07 -0.03 -0.03 -0.06 -0.03 -0.03 -0.03 -0.03 -0.05 -0.01 -0.01 0.00 -0.01 -0.00 -0.01 -0.01 -0.00 -0.01 -0.01 -0.01 -0.00 0.00 0.00 -0.00 -0.00 -0.01 -0.01 -0.01 -0.02 -0.05 -0.04 -0.04 -0.04 -0.07 -0.08 -0.08 -0.12 -0.11 -0.10 -0.10 -0.12 -0.13 -0.13 -0.14 -0.21 -0.22 -0.22 -0.17
-0.00 -0.00 -0.00 -0.01 -0.01 -0.01 -0.01 -0.01 -0.01 -0.01 -0.01 -0.01 -0.00 -0.00 -0.01 -0.01 -0.01 -0.01 -0.02 -0.04 -0.04 -0.08 -0.14 -0.28 -0.28 -0.32 -0.40 -0.22 -0.10 -0.10 -0.06 -0.01 -0.00 -0.00 -0.07 -0.33 -0.14 -0.14 -0.10 -0.01 -0.01 -0.05 -0.06 -0.05 -0.05 -0.08 -0.07 -0.01 -0.01 -0.00 -0.01 -0.01 -0.02 -0.02 -0.01 -0.03 -0.03 0.00 0.00 -0.00 -0.00 -0.00 -0.00 -0.04 -0.04 -0.05 -0.04 -0.09 -0.08 -0.08 -0.07 -0.12 -0.12 -0.12 -0.16 -0.16 -0.14 -0.14 -0.20 -0.18 -0.18 -0.16 -0.18 -0.19 -0.19 -0.23
-0.01 -0.02 -0.02 -0.02 -0.02 -0.02 -0.02 -0.02 -0.01 -0.01 -0.01 -0.01 -0.01 -0.01 -0.01 -0.01 -0.02 -0.02 -0.02 -0.02 -0.02 -0.03 -0.05 -0.07 -0.07 -0.14 -0.21 -0.38 -0.38 -0.38 -0.04 -0.02 -0.01 -0.01 -0.11 -0.28 -0.19 -0.19 -0.11 -0.01 -0.01 -0.07 -0.05 -0.06 -0.06 -0.02 -0.03 0.00 0.00 -0.01 -0.03 -0.03 -0.04 -0.04 -0.04 -0.02 -0.02 0.00 -0.00 -0.00 -0.00 -0.01 -0.01 -0.06 -0.06 -0.08 -0.08 -0.13 -0.13 -0.13 -0.14 -0.23 -0.19 -0.19 -0.16 -0.21 -0.23 -0.23 -0.33 -0.28 -0.28 -0.23 -0.21 -0.18 -0.18 -0.19
-0.03 -0.04 -0.02 -0.02 -0.02 -0.02 -0.02 -0.02 -0.01 -0.01 -0.01 -0.01 -0.01 -0.01 -0.01 -0.01 -0.01 -0.01 -0.01 -0.02 -0.02 -0.02 -0.04 -0.06 -0.06 -0.09 -0.09 -0.19 -0.34 -0.34 -0.07 -0.04 -0.02 -0.02 -0.03 -0.07 -0.28 -0.28 -0.24 -0.01 -0.01 -0.01 -0.08 -0.14 -0.14 -0.04 -0.06 -0.03 -0.03 -0.01 -0.02 -0.04 -0.03 -0.03 -0.01 -0.00 -0.00 0.00 -0.01 -0.01 -0.01 -0.02 -0.04 -0.07 -0.07 -0.10 -0.13 -0.19 -0.22 -0.22 -0.23 -0.34 -0.31 -0.31 -0.25 -0.37 -0.35 -0.35 -0.38 -0.38 -0.38 -0.28 -0.21 -0.16 -0.16 -0.19
-0.05 -0.03 -0.02 -0.02 -0.02 -0.01 -0.02 -0.02 -0.01 -0.01 -0.01 -0.02 -0.01 -0.01 -0.01 -0.01 -0.01 -0.01 -0.01 -0.01 -0.01 -0.02 -0.04 -0.05 -0.05 -0.07 -0.06 -0.08 -0.08 -0.08 -0.05 -0.04 -0.03 -0.03 -0.04 -0.09 -0.26 -0.26 -0.14 -0.06 -0.06 -0.04 -0.07 -0.09 -0.09 -0.09 -0.05 -0.04 -0.04 -0.06 -0.04 -0.02 -0.01 -0.01 -0.01 0.00 0.00 0.00 -0.02 -0.02 -0.02 -0.05 -0.05 -0.08 -0.08 -0.12 -0.16 -0.26 -0.29 -0.29 -0.29 -0.38 -0.43 -0.43 -0.38 -0.43 -0.47 -0.47 -0.42 -0.36 -0.36 -0.41 -0.43 -0.25 -0.25 -0.19
-0.05 -0.02 -0.02 -0.02 -0.02 -0.02 -0.03 -0.02 -0.02 -0.02 -0.02 -0.01 -0.01 -0.01 -0.01 -0.01 -0.02 -0.02 -0.01 -0.01 -0.01 -0.02 -0.03 -0.04 -0.04 -0.05 -0.04 -0.05 -0.04 -0.04 -0.04 -0.04 -0.04 -0.04 -0.05 -0.08 -0.26 -0.26 -0.13 -0.09 -0.09 -0.04 -0.07 -0.12 -0.12 -0.15 -0.06 -0.08 -0.08 -0.06 -0.06 -0.02 0.00 0.00 -0.01 0.00 0.00 -0.01 -0.01 -0.03 -0.03 -0.05 -0.06 -0.06 -0.06 -0.11 -0.16 -0.31 -0.36 -0.36 -0.37 -0.40 -0.45 -0.45 -0.43 -0.38 -0.42 -0.42 -0.37 -0.35 -0.35 -0.44 -0.52 -0.33 -0.33 -0.19
-0.05 -0.03 -0.03 -0.01 -0.01 -0.01 -0.02 -0.03 -0.02 -0.02 -0.02 -0.01 -0.02 -0.02 -0.01 -0.02 -0.02 -0.02 -0.02 -0.01 -0.01 -0.02 -0.02 -0.03 -0.03 -0.04 -0.04 -0.04 -0.04 -0.04 -0.03 -0.03 -0.03 -0.03 -0.04 -0.05 -0.06 -0.06 -0.15 -0.30 -0.30 -0.13 -0.09 -0.20 -0.20 -0.19 -0.16 -0.09 -0.09 -0.02 0.01 0.00 -0.01 -0.01 0.01 -0.00 -0.00 -0.01 -0.02 -0.04 -0.04 -0.06 -0.05 -0.07 -0.07 -0.16 -0.23 -0.39 -0.36 -0.36 -0.34 -0.29 -0.44 -0.44 -0.43 -0.48 -0.43 -0.43 -0.53 -0.43 -0.43 -0.35 -0.41 -0.56 -0.56 -0.42
-0.04 -0.03 -0.02 -0.01 -0.01 -0.01 -0.02 -0.02 -0.02 -0.02 -0.02 -0.02 -0.02 -0.02 -0.02 -0.03 -0.04 -0.04 -0.03 -0.02 -0.02 -0.03 -0.02 -0.02 -0.02 -0.03 -0.04 -0.05 -0.05 -0.05 -0.04 -0.03 -0.03 -0.03 -0.04 -0.05 -0.07 -0.07 -0.12 -0.28 -0.28 -0.25 -0.25 -0.15 -0.15 -0.10 -0.06 -0.02 -0.02 0.03 0.01 0.01 -0.01 -0.01 0.00 -0.01 -0.01 -0.02 -0.04 -0.09 -0.09 -0.06 -0.07 -0.11 -0.11 -0.23 -0.23 -0.27 -0.28 -0.28 -0.33 -0.22 -0.23 -0.23 -0.34 -0.34 -0.50 -0.50 -0.53 -0.49 -0.49 -0.35 -0.37 -0.53 -0.53 -0.53
-0.04 -0.02 -0.02 -0.02 -0.02 -0.02 -0.01 -0.01 -0.01 -0.01 -0.02 -0.02 -0.02 -0.02 -0.02 -0.05 -0.04 -0.04 -0.04 -0.04 -0.04 -0.03 -0.02 -0.03 -0.03 -0.03 -0.06 -0.05 -0.05 -0.05 -0.04 -0.03 -0.03 -0.03 -0.04 -0.06 -0.10 -0.10 -0.17 -0.34 -0.34 -0.33 -0.26 -0.15 -0.15 -0.03 0.03 0.04 0.04 0.03 0.03 -0.00 0.03 0.03 -0.00 -0.00 -0.00 -0.03 -0.04 -0.08 -0.08 -0.12 -0.08 -0.10 -0.10 -0.19 -0.27 -0.27 -0.22 -0.22 -0.24 -0.21 -0.23 -0.23 -0.26 -0.31 -0.38 -0.38 -0.52 -0.50 -0.50 -0.40 -0.42 -0.42 -0.42 -0.47
-0.03 -0.02 -0.01 -0.01 -0.01 -0.01 -0.01 -0.01 -0.01 -0.01 -0.02 -0.02 -0.02 -0.02 -0.02 -0.05 -0.06 -0.06 -0.06 -0.04 -0.04 -0.04 -0.03 -0.03 -0.03 -0.03 -0.08 -0.08 -0.05 -0.05 -0.05 -0.03 -0.03 -0.03 -0.03 -0.06 -0.09 -0.09 -0.17 -0.22 -0.22 -0.21 -0.22 -0.09 -0.09 -0.01 0.00 0.00 0.00 0.00 -0.02 -0.02 0.02 0.02 0.01 -0.01 -0.01 -0.02 -0.05 -0.09 -0.09 -0.22 -0.15 -0.13 -0.13 -0.18 -0.24 -0.25 -0.20 -0.20 -0.19 -0.24 -0.24 -0.24 -0.24 -0.31 -0.33 -0.33 -0.34 -0.40 -0.40 -0.44 -0.41 -0.45 -0.45 -0.50
-0.04 -0.03 -0.02 -0.01 -0.01 -0.00 -0.01 -0.01 -0.02 -0.02 -0.02 -0.02 -0.02 -0.02 -0.02 -0.02 -0.03 -0.03 -0.07 -0.05 -0.05 -0.04 -0.03 -0.03 -0.03 -0.04 -0.08 -0.06 -0.05 -0.05 -0.04 -0.03 -0.02 -0.02 -0.04 -0.11 -0.21 -0.21 -0.25 -0.08 -0.08 -0.06 -0.05 -0.05 -0.05 -0.03 -0.01 0.00 0.00 -0.01 -0.02 -0.01 -0.00 -0.00 -0.01 -0.02 -0.02 -0.04 -0.05 -0.12 -0.12 -0.40 -0.40 -0.28 -0.28 -0.25 -0.20 -0.21 -0.22 -0.22 -0.23 -0.32 -0.27 -0.27 -0.25 -0.41 -0.42 -0.42 -0.37 -0.37 -0.37 -0.37 -0.35 -0.41 -0.41 -0.50
-0.03 -0.02 -0.01 -0.00 -0.00 -0.01 -0.01 -0.01 -0.02 -0.02 -0.02 -0.03 -0.02 -0.02 -0.02 -0.02 -0.04 -0.04 -0.09 -0.06 -0.06 -0.04 -0.03 -0.03 -0.03 -0.05 -0.08 -0.05 -0.05 -0.05 -0.05 -0.04 -0.03 -0.03 -0.05 -0.11 -0.17 -0.17 -0.12 -0.06 -0.06 -0.04 -0.03 -0.08 -0.08 -0.05 -0.01 0.01 0.01 0.00 0.00 -0.02 -0.02 -0.02 -0.04 -0.03 -0.03 -0.06 -0.05 -0.06 -0.06 -0.19 -0.35 -0.33 -0.33 -0.29 -0.24 -0.21 -0.26 -0.26 -0.31 -0.32 -0.28 -0.28 -0.27 -0.43 -0.45 -0.45 -0.41 -0.39 -0.39 -0.32 -0.33 -0.30 -0.30 -0.36
-0.02 -0.02 -0.01 -0.01 -0.01 -0.02 -0.02 -0.02 -0.03 -0.03 -0.03 -0.02 -0.01 -0.01 -0.02 -0.03 -0.04 -0.04 -0.08 -0.06 -0.06 -0.04 -0.03 -0.05 -0.05 -0.14 -0.07 -0.05 -0.06 -0.06 -0.07 -0.06 -0.05 -0.05 -0.05 -0.05 -0.05 -0.05 -0.06 -0.05 -0.05 -0.04 -0.03 -0.02 -0.02 -0.02 -0.05 -0.00 -0.00 -0.03 -0.01 -0.01 -0.03 -0.03 -0.06 -0.07 -0.07 -0.10 -0.07 -0.08 -0.08 -0.19 -0.24 -0.28 -0.28 -0.33 -0.26 -0.21 -0.29 -0.29 -0.29 -0.37 -0.27 -0.27 -0.25 -0.22 -0.33 -0.33 -0.44 -0.27 -0.27 -0.30 -0.30 -0.31 -0.31 -0.34
-0.03 -0.03 -0.02 -0.03 -0.03 -0.02 -0.01 -0.02 -0.03 -0.03 -0.02 -0.02 -0.02 -0.02 -0.02 -0.03 -0.02 -0.02 -0.03 -0.04 -0.04 -0.05 -0.04 -0.04 -0.04 -0.05 -0.07 -0.07 -0.08 -0.08 -0.13 -0.12 -0.10 -0.10 -0.07 -0.04 -0.05 -0.05 -0.06 -0.04 -0.04 -0.02 -0.02 -0.02 -0.02 -0.02 -0.03 -0.03 -0.03 0.01 0.03 0.02 -0.03 -0.03 -0.06 -0.09 -0.09 -0.14 -0.12 -0.12 -0.12 -0.16 -0.20 -0.21 -0.21 -0.23 -0.31 -0.31 -0.34 -0.34 -0.25 -0.23 -0.13 -0.13 -0.19 -0.16 -0.20 -0.20 -0.28 -0.24 -0.24 -0.29 -0.30 -0.30 -0.30 -0.33
-0.04 -0.03 -0.03 -0.02 -0.02 -0.02 -0.02 -0.02 -0.03 -0.03 -0.03 -0.02 -0.03 -0.03 -0.03 -0.05 -0.05 -0.05 -0.05 -0.03 -0.03 -0.04 -0.04 -0.05 -0.05 -0.05 -0.07 -0.07 -0.10 -0.10 -0.18 -0.14 -0.10 -0.10 -0.06 -0.05 -0.06 -0.06 -0.06 -0.03 -0.03 -0.01 -0.01 -0.02 -0.02 -0.02 -0.02 -0.01 -0.01 0.02 0.02 0.07 0.03 0.03 -0.05 -0.05 -0.05 -0.11 -0.16 -0.14 -0.14 -0.18 -0.19 -0.20 -0.20 -0.26 -0.32 -0.39 -0.39 -0.39 -0.28 -0.19 -0.17 -0.17 -0.16 -0.15 -0.12 -0.12 -0.12 -0.16 -0.16 -0.21 -0.28 -0.31 -0.31 -0.34
-0.04 -0.03 -0.03 -0.03 -0.03 -0.03 -0.03 -0.02 -0.03 -0.03 -0.02 -0.01 -0.03 -0.03 -0.03 -0.05 -0.10 -0.10 -0.07 -0.05 -0.05 -0.05 -0.06 -0.05 -0.05 -0.08 -0.07 -0.07 -0.09 -0.09 -0.18 -0.11 -0.06 -0.06 -0.05 -0.06 -0.06 -0.06 -0.06 -0.03 -0.03 -0.03 -0.02 -0.01 -0.01 -0.01 -0.01 -0.01 -0.01 -0.00 -0.00 -0.00 -0.06 -0.06 -0.07 -0.06 -0.06 -0.10 -0.17 -0.17 -0.17 -0.19 -0.18 -0.21 -0.21 -0.28 -0.34 -0.34 -0.32 -0.32 -0.37 -0.34 -0.32 -0.32 -0.25 -0.15 -0.15 -0.15 -0.13 -0.16 -0.16 -0.18 -0.26 -0.27 -0.27 -0.32
-0.03 -0.05 -0.03 -0.03 -0.03 -0.04 -0.03 -0.02 -0.03 -0.03 -0.02 -0.02 -0.03 -0.03 -0.03 -0.04 -0.07 -0.07 -0.08 -0.07 -0.07 -0.09 -0.06 -0.08 -0.08 -0.09 -0.09 -0.08 -0.07 -0.07 -0.10 -0.07 -0.05 -0.05 -0.05 -0.06 -0.08 -0.08 -0.05 -0.03 -0.03 -0.02 -0.01 -0.01 -0.01 -0.01 -0.01 -0.01 -0.01 -0.01 -0.03 -0.08 -0.13 -0.13 -0.08 -0.07 -0.07 -0.06 -0.06 -0.14 -0.14 -0.21 -0.25 -0.22 -0.22 -0.27 -0.29 -0.32 -0.27 -0.27 -0.25 -0.27 -0.19 -0.19 -0.02 -0.14 -0.16 -0.16 -0.18 -0.22 -0.22 -0.21 -0.18 -0.21 -0.21 -0.20
-0.03 -0.02 -0.04 -0.05 -0.05 -0.04 -0.02 -0.03 -0.04 -0.04 -0.02 -0.04 -0.03 -0.03 -0.03 -0.03 -0.04 -0.04 -0.05 -0.05 -0.05 -0.08 -0.11 -0.08 -0.08 -0.12 -0.11 -0.07 -0.07 -0.07 -0.12 -0.07 -0.05 -0.05 -0.05 -0.08 -0.07 -0.07 -0.05 -0.03 -0.03 -0.01 0.02 -0.00 -0.00 -0.01 -0.01 -0.01 -0.01 -0.02 -0.02 -0.03 -0.09 -0.09 -0.11 -0.09 -0.09 -0.06 -0.05 -0.11 -0.11 -0.18 -0.27 -0.27 -0.27 -0.30 -0.31 -0.30 -0.22 -0.22 -0.22 -0.22 -0.20 -0.20 -0.14 -0.06 -0.12 -0.12 -0.17 -0.29 -0.29 -0.28 -0.23 -0.18 -0.18 -0.19